When you browse on this site, cookies collect data to enhance your experience and personalize the content and advertising you see.
Visit our Privacy Policy to learn more. By continuing to use the site, you agree to this use of cookies and data.
  • In Romania
  • List of Countries
  • For 7 days
  • Water Temperature
  • Satellite Maps
  • Weather Map
  • Weather Widgets
  • user-avatar
    Login

    Hourly Weather Mahdia

    Today, 22 January, Tuesday

    Time Temperature Precipitation Wind Pressure Humidity
    00:00 +12°C° 0 mm 10 mps 758 mmHg 68%
    01:00 +11°C° 0 mm 8 mps 759 mmHg 68%
    02:00 +11°C° 0 mm 8 mps 759 mmHg 68%
    03:00 +11°C° 0 mm 8 mps 759 mmHg 68%
    04:00 +10°C° 0 mm 8 mps 759 mmHg 68%
    05:00 +10°C° 0 mm 8 mps 759 mmHg 69%
    06:00 +10°C° 0 mm 8 mps 759 mmHg 70%
    07:00 +10°C° 0 mm 7 mps 759 mmHg 71%
    08:00 +10°C° 0 mm 7 mps 759 mmHg 67%
    09:00 +11°C° 0 mm 7 mps 760 mmHg 63%
    10:00 +13°C° 0 mm 6 mps 760 mmHg 59%
    11:00 +13°C° 0 mm 6 mps 759 mmHg 54%
    12:00 +14°C° 0 mm 5 mps 759 mmHg 49%
    13:00 +15°C° 0 mm 4 mps 759 mmHg 45%
    14:00 +15°C° 0 mm 4 mps 758 mmHg 43%
    15:00 +16°C° 0 mm 3 mps 758 mmHg 42%
    16:00 +16°C° 0 mm 3 mps 758 mmHg 40%
    17:00 +14°C° 0 mm 3 mps 758 mmHg 42%
    18:00 +14°C° 0 mm 3 mps 757 mmHg 44%
    19:00 +14°C° 0 mm 4 mps 757 mmHg 45%
    20:00 +13°C° 0.1 mm 4 mps 757 mmHg 50%
    21:00 +13°C° 0.1 mm 4 mps 757 mmHg 55%
    22:00 +12°C° 0.1 mm 4 mps 757 mmHg 60%
    23:00 +12°C° 0.1 mm 4 mps 757 mmHg 61%

    Tomorrow, 23 January, Wednesday

    Time Temperature Precipitation Wind Pressure Humidity
    00:00 +12°C° 0.1 mm 4 mps 757 mmHg 61%
    01:00 +11°C° 0.1 mm 4 mps 756 mmHg 61%
    02:00 +11°C° 0 mm 4 mps 756 mmHg 61%
    03:00 +11°C° 0 mm 4 mps 755 mmHg 60%
    04:00 +10°C° 0 mm 4 mps 755 mmHg 60%
    05:00 +10°C° 0 mm 4 mps 754 mmHg 60%
    06:00 +10°C° 0 mm 4 mps 754 mmHg 61%
    07:00 +8°C° 0 mm 4 mps 754 mmHg 61%
    08:00 +10°C° 0 mm 4 mps 754 mmHg 58%
    09:00 +11°C° 0 mm 4 mps 753 mmHg 55%
    10:00 +12°C° 0 mm 4 mps 753 mmHg 52%
    11:00 +13°C° 0 mm 5 mps 752 mmHg 48%
    12:00 +14°C° 0 mm 6 mps 752 mmHg 45%
    13:00 +15°C° 0 mm 6 mps 751 mmHg 42%
    14:00 +15°C° 0 mm 7 mps 750 mmHg 39%
    15:00 +15°C° 0 mm 7 mps 750 mmHg 36%
    16:00 +16°C° 0 mm 7 mps 749 mmHg 32%
    17:00 +15°C° 0.1 mm 8 mps 749 mmHg 37%
    18:00 +13°C° 0.1 mm 8 mps 749 mmHg 41%
    19:00 +12°C° 0.1 mm 9 mps 749 mmHg 46%
    20:00 +12°C° 0 mm 8 mps 749 mmHg 47%
    21:00 +11°C° 0 mm 6 mps 749 mmHg 48%
    22:00 +10°C° 0 mm 5 mps 748 mmHg 49%
    23:00 +11°C° 0.5 mm 8 mps 747 mmHg 49%

    Day after tomorrow, 24 January, Thursday

    Time Temperature Precipitation Wind Pressure Humidity
    00:00 +11°C° 0.5 mm 10 mps 747 mmHg 48%
    01:00 +12°C° 0.5 mm 13 mps 746 mmHg 48%
    02:00 +10°C° 0 mm 13 mps 745 mmHg 51%
    03:00 +10°C° 0 mm 12 mps 744 mmHg 53%
    04:00 +10°C° 0 mm 12 mps 744 mmHg 56%
    05:00 +9°C° 0.1 mm 12 mps 744 mmHg 60%
    06:00 +9°C° 0.1 mm 12 mps 744 mmHg 64%
    07:00 +9°C° 0.1 mm 12 mps 744 mmHg 68%
    08:00 +9°C° 0 mm 12 mps 744 mmHg 62%
    09:00 +9°C° 0 mm 12 mps 745 mmHg 55%
    10:00 +9°C° 0 mm 11 mps 745 mmHg 48%
    11:00 +9°C° 0 mm 12 mps 745 mmHg 43%
    12:00 +10°C° 0 mm 12 mps 745 mmHg 37%
    13:00 +10°C° 0 mm 12 mps 745 mmHg 32%
    14:00 +10°C° 0 mm 13 mps 744 mmHg 31%
    15:00 +10°C° 0 mm 14 mps 743 mmHg 30%
    16:00 +10°C° 0 mm 14 mps 742 mmHg 29%
    17:00 +10°C° 0.1 mm 14 mps 742 mmHg 35%
    18:00 +9°C° 0.1 mm 15 mps 741 mmHg 41%
    19:00 +9°C° 0.1 mm 15 mps 740 mmHg 47%
    20:00 +9°C° 0.2 mm 16 mps 741 mmHg 51%
    21:00 +9°C° 0.2 mm 17 mps 741 mmHg 55%
    22:00 +7°C° 0.2 mm 18 mps 741 mmHg 58%
    23:00 +7°C° 0.2 mm 17 mps 742 mmHg 60%

    25 January, Friday

    Time Temperature Precipitation Wind Pressure Humidity
    00:00 +7°C° 0.2 mm 17 mps 742 mmHg 62%
    01:00 +7°C° 0.2 mm 16 mps 743 mmHg 64%
    02:00 +7°C° 0.4 mm 16 mps 743 mmHg 68%
    03:00 +7°C° 0.4 mm 16 mps 744 mmHg 71%
    04:00 +9°C° 0.4 mm 16 mps 744 mmHg 74%
    05:00 +9°C° 0.8 mm 16 mps 745 mmHg 73%
    06:00 +9°C° 0.8 mm 17 mps 746 mmHg 72%
    07:00 +9°C° 0.8 mm 17 mps 747 mmHg 71%
    08:00 +10°C° 0.3 mm 16 mps 748 mmHg 67%
    09:00 +10°C° 0.3 mm 16 mps 749 mmHg 63%
    10:00 +11°C° 0.3 mm 15 mps 750 mmHg 59%
    11:00 +12°C° 0.1 mm 14 mps 751 mmHg 55%
    12:00 +12°C° 0.1 mm 13 mps 751 mmHg 51%
    13:00 +13°C° 0.1 mm 12 mps 751 mmHg 48%
    14:00 +13°C° 0.1 mm 12 mps 752 mmHg 49%
    15:00 +13°C° 0.1 mm 12 mps 752 mmHg 51%
    16:00 +12°C° 0.1 mm 12 mps 752 mmHg 53%
    17:00 +12°C° 0.2 mm 13 mps 753 mmHg 56%
    18:00 +10°C° 0.2 mm 14 mps 753 mmHg 60%
    19:00 +9°C° 0.2 mm 15 mps 754 mmHg 64%
    20:00 +8°C° 0 mm 14 mps 754 mmHg 63%
    21:00 +8°C° 0 mm 14 mps 755 mmHg 63%
    22:00 +6°C° 0 mm 14 mps 755 mmHg 63%
    23:00 +7°C° 0 mm 13 mps 755 mmHg 64%

    26 January, Saturday

    Time Temperature Precipitation Wind Pressure Humidity
    00:00 +7°C° 0 mm 12 mps 755 mmHg 66%
    01:00 +7°C° 0 mm 11 mps 755 mmHg 67%
    02:00 +7°C° 0 mm 11 mps 755 mmHg 67%
    03:00 +7°C° 0 mm 11 mps 755 mmHg 68%
    04:00 +7°C° 0 mm 10 mps 754 mmHg 68%
    05:00 +7°C° 0.1 mm 10 mps 755 mmHg 69%
    06:00 +7°C° 0.1 mm 9 mps 755 mmHg 70%
    07:00 +6°C° 0.1 mm 9 mps 755 mmHg 71%
    08:00 +7°C° 0 mm 8 mps 755 mmHg 67%
    09:00 +9°C° 0 mm 8 mps 756 mmHg 63%
    10:00 +10°C° 0 mm 7 mps 756 mmHg 59%
    11:00 +11°C° 0 mm 7 mps 756 mmHg 56%
    12:00 +11°C° 0 mm 7 mps 756 mmHg 52%
    13:00 +12°C° 0 mm 7 mps 756 mmHg 49%
    14:00 +12°C° 0 mm 7 mps 756 mmHg 46%
    15:00 +14°C° 0 mm 7 mps 756 mmHg 44%
    16:00 +14°C° 0 mm 7 mps 756 mmHg 41%
    17:00 +12°C° 0 mm 7 mps 757 mmHg 44%
    18:00 +12°C° 0 mm 7 mps 757 mmHg 47%
    19:00 +11°C° 0 mm 6 mps 758 mmHg 50%
    20:00 +11°C° 0 mm 6 mps 758 mmHg 53%
    21:00 +11°C° 0 mm 6 mps 758 mmHg 56%
    22:00 +10°C° 0 mm 5 mps 758 mmHg 58%
    23:00 +10°C° 0 mm 5 mps 758 mmHg 61%

    27 January, Sunday

    Time Temperature Precipitation Wind Pressure Humidity
    00:00 +10°C° 0 mm 5 mps 758 mmHg 64%
    01:00 +10°C° 0 mm 5 mps 758 mmHg 67%
    02:00 +10°C° 0 mm 5 mps 757 mmHg 67%
    03:00 +10°C° 0 mm 5 mps 757 mmHg 68%
    04:00 +10°C° 0 mm 5 mps 756 mmHg 68%
    05:00 +9°C° 0 mm 6 mps 756 mmHg 66%
    06:00 +9°C° 0 mm 7 mps 756 mmHg 64%
    07:00 +9°C° 0 mm 7 mps 755 mmHg 62%
    08:00 +10°C° 0 mm 7 mps 755 mmHg 56%
    09:00 +11°C° 0 mm 8 mps 755 mmHg 49%
    10:00 +12°C° 0 mm 8 mps 755 mmHg 43%
    11:00 +14°C° 0 mm 7 mps 754 mmHg 39%
    12:00 +16°C° 0 mm 6 mps 754 mmHg 35%
    13:00 +17°C° 0 mm 6 mps 753 mmHg 32%
    14:00 +17°C° 0 mm 5 mps 753 mmHg 31%
    15:00 +19°C° 0 mm 3 mps 752 mmHg 31%
    16:00 +19°C° 0 mm 2 mps 752 mmHg 31%
    17:00 +18°C° 0 mm 3 mps 752 mmHg 35%
    18:00 +17°C° 0 mm 4 mps 752 mmHg 40%
    19:00 +15°C° 0 mm 5 mps 753 mmHg 45%
    20:00 +13°C° 0.1 mm 6 mps 753 mmHg 54%
    21:00 +11°C° 0.1 mm 8 mps 753 mmHg 62%
    22:00 +10°C° 0.1 mm 9 mps 754 mmHg 70%
    23:00 +10°C° 0.4 mm 9 mps 754 mmHg 72%
    Show more